Regional Weather Roundup
Issued by NWS

Home | Current Version | Previous Version | Graphics & Text | Print | Product List | Glossary Off
Versions: 1 2 3 4 5 6 7 8 9 10 11 12 13 14 15 16 17 18 19 20 21 22 23 24 25 26 27 28 29 30 31 32 33 34 35 36 37 38 39 40 41 42 43 44 45 46 47 48 49 50

000
ASUS43 KTOP 212159
RWRKS

WEATHER ROUNDUP FOR KANSAS
NATIONAL WEATHER SERVICE GOODLAND KS
400 PM CST SUN DEC 21 2014

NOTE:  "FAIR" INDICATES FEW OR NO CLOUDS BELOW 12,000 FEET WITH NO
SIGNIFICANT WEATHER AND/OR OBSTRUCTIONS TO VISIBILITY.

KSZ001>006-013>018-027>032-041>047-212300-
NORTHWEST KANSAS

CITY           SKY/WX    TMP DP  RH WIND       PRES   REMARKS
GOODLAND       CLOUDY    45  34  65 S10       29.54F
HAYS           CLOUDY    45  34  65 S17       29.64F
HILL CITY      CLOUDY    45  36  70 S13       29.60F
RUSSELL        CLOUDY    43  41  93 S16       29.65F
$$

KSZ061>065-074>080-084>089-212300-
SOUTHWEST KANSAS

CITY           SKY/WX    TMP DP  RH WIND       PRES   REMARKS
DODGE CITY     SUNNY     46  37  71 S16G24    29.62F
ELKHART          N/A    N/A N/A N/A MISG        N/A
GARDEN CITY    MOSUNNY   49  34  56 S14       29.59F
GREAT BEND     CLOUDY    43  39  87 S13       29.68S
LIBERAL        SUNNY     54  37  54 S10       29.62S
$$

KSZ066>073-081>083-090>101-212300-
SOUTHEAST KANSAS

CITY           SKY/WX    TMP DP  RH WIND       PRES   REMARKS
CHANUTE        CLOUDY    46  41  82 S13       29.84F
COFFEYVILLE    CLOUDY    47  41  80 S14       29.85F
HUTCHINSON     LGT RAIN  44  42  93 S15       29.73S FOG
MEDICINE LODGE   N/A     44  43  96 S13       29.70F
NEWTON         CLOUDY    43  37  81 S14       29.76S
PARSONS        CLOUDY    47  42  83 S10G20    29.85F
WICHITA INTL   DRIZZLE   46  43  89 S16       29.74F FOG
WICHITA JABRA  LGT RAIN  44  43  96 S12       29.75F FOG
WICHITA MCCONL CLOUDY    45  43  93 SE14      29.75F FOG
WINFIELD       CLOUDY    46  43  89 S16       29.78F
$$

KSZ007>012-019>026-033>040-048>060-102>105-212300-
NORTHEAST KANSAS

CITY           SKY/WX    TMP DP  RH WIND       PRES   REMARKS
CONCORDIA      CLOUDY    41  41 100 S16       29.70F FOG
EMPORIA        CLOUDY    43  42  97 S14       29.78F FOG
LAWRENCE       CLOUDY    45  40  82 S12       29.83S
MANHATTAN      CLOUDY    44  42  93 S10       29.76F
OLATHE IND     CLOUDY    44  40  85 S15       29.84F
OLATHE EXE     CLOUDY    44  41  89 S13       29.83F FOG
SALINA         CLOUDY    44  41  89 S15       29.72F FOG
TOPEKA BILLARD   N/A    N/A N/A N/A MISG      29.81F
TOPEKA FORBES  LGT RAIN  45  41  86 S12       29.80F
$$



USA.gov is the U.S. government's official web portal to all federal, state and local government web resources and services.